Weather in Aryazh

Russia / Perm Krai     56°29′50″N   55°35′48″E
temp.,
°C
wind,
m/s
gust,
m/s
humid.,
%
clouds,
%
prec.,
mm/h
press.,
hPa
HPBL,
m
3 march, wed
wed323:00−6s61296100 1.9 997482
02:00−2wsw51096100 1.3 996473
05:00−3wsw5996100 1.6 997431
08:00−5wsw4797100 0.4 997243
11:00−4w469699 0.7 998293
14:00−2wsw459694 0.1 998465
17:00−2sw579697 0.5 998484
20:00−4sw4897100 0.6 998339
4 march, thu
thu423:00−5sw5996100 1.3 999357
02:00−7wnw61294100 0.8 998487
05:00−12w499799 1.0 999202
08:00−15wsw369993 0.0 99992
11:00−9sw599596 0.2 999373
14:00−7sw6994100 0.6 998613
17:00−5ssw61093100 0.8 997729
20:00−5s71296100 1.6 994730
5 march, fri
fri523:00−4ssw61196100 3.9 993518
02:00−6wsw71392100 0.3 993478
05:00−7wsw51094100 0.3 996425
08:00−7wsw599599 0.1 998317
11:00−7wsw3597100 0.2 1000264
14:00−5sw3392100 0.1 1000379
17:00−4sw2392100 0.2 1000339
20:00−6nw2297100 0.2 100051
6 march, sat
sat623:00−9nnw51093100 0.3 1003274
02:00−17wnw469635 0.0 100788
05:00−19wnw349849 0.0 101047
08:00−21w349968 0.0 101244
11:00−16w349374 0.0 1012230
14:00−12wsw348695 0.0 1012452
17:00−11ssw339198 0.0 1010336
20:00−17ssw239786 0.0 101021
7 march, sun
sun723:00−19sw229973 0.1 101020
02:00−17sw239896 0.1 100965
05:00−17sw349797 0.3 101098
08:00−18w239898 0.1 101041
11:00−16wsw249178 0.1 1011247
14:00−13sw458967 0.0 1012454
17:00−13ssw579176 0.0 1011490
20:00−17ssw469783 0.0 101193